Weather History for Marathon, FL

Change the Weather History Date:

Tuesday, October 2, 2012

  Actual Average Record
Temperature  
Mean Temperature 82 °F 83 °F  
Max Temperature 88 °F 88 °F 90 °F (2002)
Min Temperature 76 °F 78 °F 72 °F (2010)
Degree Days  
Heating Degree Days 0 0  
Month to date heating degree days 0 0  
Since 1 July heating degree days 0 0  
Cooling Degree Days 17 18  
Month to date cooling degree days 35 36  
Year to date cooling degree days 4278 3990  
Growing Degree Days 32 (Base 50)    
Moisture  
Dew Point 77 °F    
Average Humidity 86    
Maximum Humidity 100    
Minimum Humidity 72    
Precipitation  
Precipitation 0.42 in 0.18 in 2.61 in (2000)
Month to date precipitation 0.58 0.37  
Year to date precipitation 40.71 36.92  
Snow  
Snow 0.00 in - - ()
Month to date snowfall 0.0  
Since 1 July snowfall 0.0  
Since 1 September snowfall 0.0  
Snow Depth 0.00 in    
Sea Level Pressure  
Sea Level Pressure 29.96 in    
Wind  
Wind Speed 7 mph (SSW)    
Max Wind Speed 15 mph    
Max Gust Speed 25 mph    
Visibility 8 miles    
Events Fog , Rain , Thunderstorm    
T = Trace of Precipitation, MM = Missing Value Source: NWS Daily Summary

Daily Weather History Graph

Daily Weather History Graph

Search for Another Location

Airport:

Trip Planner

Search our weather history database for the weather conditions in past years. The results will help you decide how hot, cold, wet, or windy it might be!

Date:

Astronomy

Oct. 02, 2012 Rise Set
Actual Time 7:16 AM EDT 7:09 PM EDT
Civil Twilight 6:54 AM EDT 7:32 PM EDT
Nautical Twilight 6:27 AM EDT 7:58 PM EDT
Astronomical Twilight 6:01 AM EDT 8:25 PM EDT
Moon 8:43 PM EDT (10/2) 9:22 AM EDT (10/2)
Length of Visible Light 12h 38m
Length of Day
11h 52m
Waning Gibbous, 94% of the Moon is Illuminated
Oct 2
Waning Gibbous
Oct 8
Last Quarter
Oct 15
New
Oct 21
First Quarter
Oct 29
Full

Hourly Weather History & Observations

Time (EDT) Temp. Heat Index Dew Point Humidity Pressure Visibility Wind Dir Wind Speed Gust Speed Precip Events Conditions
12:53 AM 82.0 °F 90.2 °F 77.0 °F 85% 29.88 in 10.0 mi SSW 10.4 mph 19.6 mph N/A   Partly Cloudy
1:53 AM 82.0 °F 90.2 °F 77.0 °F 85% 29.89 in 10.0 mi SSW 11.5 mph 21.9 mph N/A   Scattered Clouds
3:07 AM 82.4 °F 90.9 °F 77.0 °F 84% 29.88 in 10.0 mi South 11.5 mph 20.7 mph N/A   Mostly Cloudy
3:14 AM 82.4 °F 90.9 °F 77.0 °F 84% 29.88 in 10.0 mi South 11.5 mph 21.9 mph N/A   Scattered Clouds
3:42 AM 82.4 °F 90.9 °F 77.0 °F 84% 29.87 in 10.0 mi South 12.7 mph 20.7 mph N/A   Mostly Cloudy
3:53 AM 82.0 °F 90.2 °F 77.0 °F 85% 29.87 in 10.0 mi South 8.1 mph 21.9 mph N/A   Mostly Cloudy
4:06 AM 82.4 °F 90.9 °F 77.0 °F 84% 29.88 in 10.0 mi SSW 10.4 mph 20.7 mph N/A   Scattered Clouds
4:53 AM 82.0 °F 89.4 °F 75.9 °F 82% 29.88 in 10.0 mi South 10.4 mph 23.0 mph 0.01 in   Mostly Cloudy
5:53 AM 82.0 °F 89.4 °F 75.9 °F 82% 29.90 in 10.0 mi South 11.5 mph 20.7 mph N/A   Mostly Cloudy
6:53 AM 82.0 °F 88.6 °F 75.0 °F 79% 29.91 in 10.0 mi South 10.4 mph 18.4 mph N/A   Clear
7:53 AM 82.0 °F 90.2 °F 77.0 °F 85% 29.92 in 10.0 mi South 9.2 mph 16.1 mph N/A   Scattered Clouds
8:53 AM 82.9 °F 90.8 °F 75.9 °F 79% 29.93 in 10.0 mi South 8.1 mph - N/A   Clear
9:53 AM 84.0 °F 93.7 °F 77.0 °F 79% 29.95 in 10.0 mi SSW 9.2 mph - N/A   Clear
10:53 AM 84.9 °F 95.3 °F 77.0 °F 77% 29.97 in 10.0 mi South 5.8 mph - N/A   Scattered Clouds
11:05 AM 84.2 °F 96.1 °F 78.8 °F 84% 29.97 in 10.0 mi SSW 5.8 mph - N/A   Mostly Cloudy
11:22 AM 84.2 °F 96.1 °F 78.8 °F 84% 29.98 in 10.0 mi South 5.8 mph - N/A   Scattered Clouds
11:53 AM 88.0 °F 103.1 °F 79.0 °F 75% 29.99 in 10.0 mi South 8.1 mph - N/A   Scattered Clouds
12:53 PM 86.0 °F 96.9 °F 77.0 °F 74% 29.98 in 10.0 mi South 9.2 mph 18.4 mph N/A   Scattered Clouds
1:53 PM 86.0 °F 98.3 °F 78.1 °F 77% 29.95 in 10.0 mi South 10.4 mph 17.3 mph 0.00 in   Partly Cloudy
2:53 PM 87.1 °F 98.8 °F 77.0 °F 72% 29.94 in 10.0 mi South 10.4 mph 17.3 mph N/A   Partly Cloudy
3:53 PM 86.0 °F 98.3 °F 78.1 °F 77% 29.95 in 10.0 mi South 6.9 mph 16.1 mph N/A   Partly Cloudy
4:37 PM 80.6 °F 85.4 °F 73.4 °F 79% 29.96 in 10.0 mi West 8.1 mph 23.0 mph N/A   Mostly Cloudy
4:53 PM 79.0 °F - 75.0 °F 88% 29.96 in 10.0 mi West 10.4 mph 17.3 mph N/A   Overcast
5:16 PM 78.8 °F - 77.0 °F 94% 29.96 in 4.0 mi WSW 8.1 mph - 0.03 in Rain Light Rain
5:18 PM 78.8 °F - 77.0 °F 94% 29.96 in 1.8 mi WSW 9.2 mph - 0.06 in Rain Heavy Rain
5:27 PM 77.0 °F - 77.0 °F 100% 29.97 in 0.5 mi SSW 5.8 mph 16.1 mph 0.25 in Fog , Rain Heavy Rain
5:36 PM 78.8 °F - 77.0 °F 94% 29.97 in 1.0 mi WSW 3.5 mph - 0.27 in Rain Light Rain
5:38 PM 78.8 °F - 78.8 °F 100% 29.97 in 2.0 mi WSW 3.5 mph - 0.27 in Rain Light Rain
5:45 PM 78.8 °F - 78.8 °F 100% 29.97 in 5.0 mi Calm Calm - 0.27 in   Mostly Cloudy
5:53 PM 78.1 °F - 78.1 °F 100% 29.97 in 6.0 mi Calm Calm - 0.27 in   Scattered Clouds
6:53 PM 79.0 °F - 79.0 °F 100% 29.98 in 8.0 mi WSW 3.5 mph - 0.01 in   Partly Cloudy
8:53 PM 78.1 °F - 77.0 °F 96% 30.02 in 10.0 mi South 3.5 mph - 0.06 in   Partly Cloudy
9:53 PM 79.0 °F - 79.0 °F 100% 30.05 in 10.0 mi SW 3.5 mph - N/A   Overcast
10:53 PM 80.1 °F 86.7 °F 79.0 °F 96% 30.06 in 10.0 mi Calm Calm - N/A   Overcast
11:09 PM 80.6 °F 88.1 °F 78.8 °F 94% 30.07 in 10.0 mi SSW 4.6 mph - N/A Thunderstorm Mostly Cloudy
11:49 PM 78.8 °F - 78.8 °F 100% 30.06 in 4.0 mi Variable 3.5 mph - 0.06 in Rain Light Rain
11:50 PM 79.0 °F - 78.1 °F 97% 30.06 in 4.0 mi SSW 4.6 mph - 0.06 in Rain Light Rain